Theta_e
340 350 362 363 362 362 365 363 363 359 357 357 356 353 352 352 352 351 351 351 353 350 349 349 348 347 348 349 350 349 347 345 344 343 342 342 341 340 339 341 341 336 339
343 349 362 364 362 362 364 363 361 360 360 359 356 354 352 352 352 354 354 353 352 351 350 350 350 349 348 346 345 345 346 345 343 343 343 343 342 340 341 341 340 337 338
343 349 358 364 364 363 364 362 361 361 360 359 356 355 353 353 353 353 355 356 353 353 352 351 350 350 349 349 348 344 342 340 341 343 346 341 339 341 340 339 339 338 337
344 348 353 363 364 363 362 362 361 361 359 358 357 355 354 353 353 353 355 355 353 352 352 351 350 349 349 348 346 345 342 339 342 344 344 341 339 340 339 339 338 337 336
345 345 358 363 364 364 361 361 361 360 360 358 357 356 354 353 354 356 356 354 353 352 351 350 349 347 345 344 343 344 343 345 344 344 344 344 340 340 339 338 337 338 337
343 346 360 363 363 364 361 360 360 359 359 359 358 357 355 354 354 355 353 353 352 350 349 348 347 346 346 346 347 343 346 346 346 344 345 343 342 341 339 338 337 336 335
342 351 355 363 363 363 361 360 360 360 360 360 359 357 357 356 355 355 353 352 351 349 348 348 347 346 346 347 348 342 346 347 344 343 346 347 341 341 339 338 337 336 335
342 352 354 362 362 362 362 361 361 361 361 361 360 358 358 357 356 355 354 353 351 350 350 348 348 348 348 348 347 347 343 343 343 345 346 345 342 342 341 339 338 336 335
344 349 351 354 360 361 362 362 362 361 361 361 361 360 358 357 357 357 356 355 355 354 353 352 351 351 350 350 351 349 347 347 345 345 345 345 344 343 342 340 339 338 336
344 348 349 351 352 353 356 360 361 361 361 360 360 359 358 357 357 357 357 357 356 355 355 354 353 353 353 353 353 353 352 352 348 346 346 346 347 345 343 341 341 340 338
343 345 348 348 349 348 348 354 358 358 358 359 358 358 357 352 355 357 356 357 357 357 356 356 357 357 357 357 357 355 353 349 349 349 349 348 348 346 346 344 342 341 339
343 344 347 348 349 349 348 354 350 349 349 349 350 354 353 351 353 353 358 358 356 356 358 358 357 358 359 352 354 356 352 349 348 349 347 351 348 347 348 346 344 342 341
346 346 347 349 352 349 347 354 347 347 346 347 349 352 352 348 351 349 353 353 351 355 351 354 354 353 349 350 349 351 346 341 345 344 351 352 350 349 349 348 346 344 342
345 348 349 351 353 353 349 350 350 348 348 347 348 352 351 347 348 348 344 346 349 350 351 351 349 350 349 348 347 346 344 344 344 350 353 355 352 350 350 350 349 346 344
346 349 350 353 357 356 356 350 351 351 349 350 349 351 348 346 346 346 346 345 344 346 347 347 349 350 351 350 349 347 346 344 342 341 347 357 354 352 351 352 351 349 347
349 350 351 353 359 359 358 358 354 354 353 351 350 349 352 349 350 345 345 344 345 345 347 348 348 350 352 351 350 351 350 349 348 345 342 349 354 352 352 352 352 352 349
354 354 353 355 358 361 360 360 359 355 353 351 351 354 353 354 353 354 344 343 343 349 348 350 351 353 351 351 351 350 349 349 350 348 345 343 353 352 352 353 354 355 352
354 355 355 352 355 360 360 359 357 356 356 353 351 352 354 354 354 357 347 344 344 345 343 347 349 349 349 347 349 348 348 351 352 350 347 344 345 350 353 352 353 354 355
353 356 356 355 352 358 361 359 359 361 357 355 353 352 355 354 352 354 347 346 353 344 344 344 344 350 348 348 348 349 348 346 350 347 348 350 347 346 347 352 353 352 353
351 351 355 356 358 357 357 360 357 356 356 356 353 352 354 352 351 352 350 352 351 349 349 347 356 352 352 348 345 346 350 348 347 348 348 347 347 346 346 354 354 352 351
349 350 353 354 357 356 353 352 352 350 351 352 351 352 351 350 350 353 350 352 355 355 356 360 356 357 354 353 346 345 345 353 355 349 347 346 345 343 345 349 347 349 350
344 347 349 353 357 356 352 353 352 354 356 362 355 356 356 356 357 358 359 355 346 345 344 333 327 327 335 347 344 343 335 338 346 348 347 344 343 343 339 345 350 352 345
341 343 344 346 353 357 359 355 354 358 358 359 358 349 347 346 348 351 350 347 344 339 337 334 329 328 323 327 340 343 331 330 337 340 348 344 346 340 343 349 350 352 352
340 342 342 343 345 348 352 354 351 351 348 349 344 342 344 345 345 346 346 347 347 341 337 338 338 331 330 327 338 343 350 345 333 330 340 348 346 345 346 343 349 348 352
336 337 339 341 343 345 346 347 343 344 341 341 339 339 341 341 340 338 340 342 344 345 345 345 341 340 337 335 339 339 343 340 347 341 331 335 345 347 343 347 348 349 350
331 331 331 333 335 337 339 340 340 337 337 335 335 335 334 334 333 333 335 336 336 335 337 340 341 340 340 341 341 341 341 336 336 335 332 333 334 344 344 344 348 348 348
Wind_Speed
17 18 15 14 14 14 14 15 14 14 14 14 14 15 15 15 15 15 15 15 14 15 15 15 14 13 14 13 13 14 13 11 11 11 13 13 12 10 9 11 8 14 11
20 18 16 14 14 14 13 14 13 13 12 12 14 14 15 14 15 15 15 14 15 15 14 14 13 13 13 13 12 12 11 8 7 9 12 16 12 11 11 13 16 11 11
19 19 17 14 14 14 14 14 13 12 12 12 13 14 14 14 14 13 12 12 13 14 13 12 12 11 11 11 11 10 8 3 2 6 11 7 12 10 10 10 10 9 9
18 16 17 14 14 14 14 14 14 13 12 12 13 13 14 14 14 13 12 12 13 12 11 11 10 8 7 5 6 6 5 2 7 9 11 11 11 8 8 8 8 7 8
17 16 18 15 14 14 14 13 13 13 12 13 12 12 13 13 12 11 10 11 11 10 10 10 9 7 5 4 3 2 2 7 12 11 10 11 10 8 7 5 8 6 9
18 18 19 16 15 14 14 13 12 12 12 12 11 12 12 12 11 10 10 10 10 9 9 8 6 5 4 3 2 2 5 10 11 1 8 8 10 10 6 5 7 6 6
17 19 18 14 14 14 15 15 14 13 13 12 12 12 11 10 10 9 9 9 9 7 7 6 5 3 2 2 2 1 3 9 11 2 7 7 10 8 6 4 4 4 4
15 19 17 15 13 13 13 13 13 13 12 11 11 11 11 10 9 9 8 7 6 6 4 3 3 2 1 1 2 2 5 10 11 5 2 9 14 10 7 5 4 3 3
15 18 15 15 14 12 12 12 12 11 11 10 10 9 10 10 8 7 7 6 5 5 4 3 3 3 3 4 4 5 8 12 12 3 4 7 14 12 8 7 6 5 4
14 18 17 15 16 14 13 13 12 12 11 10 10 10 10 8 8 8 6 8 7 6 6 6 6 6 6 8 9 9 10 13 12 8 2 8 17 13 10 9 8 8 7
13 15 16 16 16 15 15 13 11 11 11 10 10 10 9 10 10 12 9 13 10 8 9 8 8 9 12 14 15 15 13 9 8 7 3 17 15 13 12 11 10 9 8
15 15 15 15 16 14 12 15 12 11 10 10 10 11 10 11 9 5 9 12 8 8 9 10 10 12 14 12 10 16 9 10 6 11 6 17 16 14 14 13 12 11 10
14 11 12 10 11 12 10 11 7 8 8 8 10 9 10 7 6 7 6 8 8 13 9 12 11 11 14 8 6 9 6 7 2 4 8 15 15 15 14 15 14 13 12
12 11 10 14 9 9 7 7 9 7 8 7 9 10 7 5 5 6 6 8 9 7 10 9 8 6 4 6 8 9 9 5 1 4 9 17 14 14 15 16 15 14 13
8 11 11 12 11 8 6 7 6 5 6 7 7 11 9 7 6 6 7 7 6 7 8 8 8 5 7 9 11 9 9 8 9 7 1 16 16 15 15 16 16 15 15
2 7 8 11 13 11 9 7 6 6 6 6 6 7 11 7 6 7 7 8 8 8 8 8 8 7 7 9 8 7 8 10 11 9 7 5 16 11 16 16 17 16 15
6 5 8 9 13 11 12 10 8 7 9 7 8 8 7 9 8 7 8 7 8 8 10 9 8 7 8 10 11 10 10 11 10 8 7 8 9 18 17 17 17 16 17
2 7 6 9 13 12 10 10 9 9 8 8 8 8 11 11 10 8 8 8 8 8 8 8 9 9 9 8 8 9 7 7 7 6 8 7 5 4 15 20 19 19 17
0 5 6 7 9 13 10 9 9 8 8 7 8 8 11 11 12 10 9 8 6 7 8 8 9 9 9 9 8 11 7 6 8 8 8 6 7 7 7 17 19 17 17
2 1 4 5 7 7 8 8 8 8 8 8 8 8 9 9 10 9 8 8 7 7 9 10 8 9 10 10 11 9 6 7 8 8 8 7 8 9 7 9 11 11 16
8 3 4 6 4 5 7 8 8 8 8 8 8 8 7 7 7 6 7 7 7 7 7 10 11 8 9 11 11 11 10 11 10 9 8 8 5 8 7 5 5 5 10
6 8 7 6 0 6 7 7 6 4 2 1 6 9 7 5 4 3 5 7 7 6 7 9 10 8 9 19 14 10 4 6 9 5 8 7 5 5 8 9 3 6 6
7 7 6 7 8 7 9 2 3 5 2 2 4 6 6 6 7 4 3 6 3 3 5 3 6 4 6 12 32 6 6 8 7 6 11 6 4 5 5 5 6 8 4
10 8 9 7 5 6 10 4 2 0 2 5 6 6 3 5 6 7 7 4 4 4 7 2 5 4 4 7 18 11 7 9 7 9 5 5 5 5 6 8 5 7 6
11 10 10 10 10 9 9 11 7 10 7 6 5 3 4 6 9 9 7 8 6 5 5 2 2 3 4 5 10 10 13 10 9 7 8 3 5 6 4 6 6 5 5
11 11 11 11 10 10 9 9 8 7 5 3 3 2 3 3 4 8 6 6 6 6 7 7 4 5 3 5 9 11 10 12 8 4 8 7 8 7 5 5 3 6 8
Wind_Direction
123 132 132 134 139 142 132 128 127 127 125 118 111 107 105 103 103 104 104 101 101 100 100 98 96 90 85 79 74 73 71 71 79 87 91 85 78 70 49 38 166 83 74
122 138 136 134 140 139 129 126 124 122 118 114 112 109 108 109 109 109 109 108 105 104 102 100 95 90 83 78 72 70 69 77 102 113 121 102 81 70 56 55 56 82 76
127 131 141 135 136 137 131 128 124 122 121 119 117 114 114 115 115 113 112 112 109 110 107 101 96 92 87 86 77 75 77 78 214 185 197 69 82 78 74 75 78 80 75
130 138 137 137 134 133 131 128 128 128 128 128 127 125 123 125 126 125 122 121 118 115 113 109 103 98 96 92 64 84 92 250 257 254 233 96 89 96 90 91 86 82 94
139 149 127 137 133 134 133 132 132 133 135 136 133 131 130 131 130 130 129 127 125 121 121 117 117 109 102 89 67 84 193 249 259 261 50 69 96 114 102 95 128 96 52
142 139 133 137 136 136 137 136 136 138 142 143 142 141 140 138 140 142 142 139 136 135 131 126 117 112 105 89 66 83 229 247 279 222 117 98 76 116 109 94 90 88 88
144 121 143 137 139 145 150 149 149 152 154 156 154 152 150 146 148 151 151 152 146 145 139 133 125 121 105 73 49 180 256 265 272 110 112 103 103 126 136 127 117 113 106
141 127 136 139 144 148 155 154 155 156 157 160 159 160 159 161 162 160 157 157 151 152 147 149 148 159 208 299 313 245 248 271 292 78 78 109 133 147 158 160 154 147 134
143 134 149 157 153 152 155 158 158 159 162 163 162 164 168 174 175 175 168 169 169 172 180 196 211 231 256 261 267 268 253 269 282 248 257 113 148 158 169 179 177 180 176
156 144 155 161 164 168 165 166 164 165 169 168 170 171 177 183 190 195 189 193 192 203 211 218 231 238 247 252 249 251 257 270 277 284 335 122 152 166 178 189 193 195 189
164 160 161 170 168 180 163 164 166 173 175 177 182 187 184 211 184 177 197 155 188 215 226 228 231 245 239 235 229 222 229 247 199 266 162 156 157 169 188 195 202 202 200
172 175 171 182 165 186 161 146 186 179 191 197 194 182 222 228 187 238 160 163 196 226 244 237 233 238 244 251 201 220 225 251 223 225 126 154 163 174 194 199 207 207 205
171 181 182 176 166 192 177 153 187 181 195 196 206 199 217 227 209 208 178 189 214 210 234 207 216 232 237 246 175 200 225 278 265 59 154 152 168 183 195 204 207 209 208
166 179 178 159 172 225 182 180 184 203 185 194 195 198 237 236 232 253 229 213 192 192 221 220 240 221 304 266 283 300 302 270 325 186 193 153 174 185 200 207 209 210 211
167 162 180 167 171 197 248 179 227 208 190 207 189 188 224 216 230 230 260 265 256 227 227 241 231 249 234 225 240 239 269 300 309 292 109 170 173 186 202 210 210 211 212
201 155 189 182 161 195 208 239 192 229 232 216 231 206 196 233 227 237 226 240 253 252 254 247 250 257 236 268 297 267 270 279 278 288 282 193 179 172 199 205 212 215 214
171 229 179 190 171 195 195 198 216 220 209 231 216 198 215 211 234 258 247 247 245 251 258 271 278 276 258 263 256 251 255 254 257 262 269 261 165 184 197 200 206 215 212
198 170 209 195 175 186 214 197 220 210 227 221 217 209 199 220 226 222 238 253 251 263 269 269 269 259 267 270 275 274 283 267 258 245 259 270 245 196 196 197 200 208 211
133 154 207 225 219 181 205 223 222 231 225 225 221 216 202 212 222 216 246 250 252 263 274 271 264 264 266 265 264 257 263 243 269 268 260 257 279 272 232 184 204 205 212
163 145 235 217 231 223 201 213 231 220 225 230 227 220 214 219 223 221 234 245 259 253 247 249 260 273 297 300 294 303 298 306 279 266 254 251 242 253 246 162 184 205 207
4 304 231 202 178 221 221 214 216 224 219 223 228 228 220 224 239 220 251 239 233 265 295 318 308 294 279 282 269 252 248 232 228 240 249 236 249 269 255 225 32 256 185
52 34 22 349 45 220 222 238 273 212 201 23 76 64 55 30 26 359 3 23 18 11 18 56 53 353 344 322 284 276 271 268 216 32 260 246 234 307 289 244 232 254 170
87 81 82 52 17 7 341 283 239 43 72 98 120 93 35 16 9 8 92 129 255 206 263 176 143 82 326 329 305 299 18 292 317 162 212 221 145 237 288 133 186 178 201
101 88 74 55 30 29 357 52 320 202 12 40 45 70 38 16 5 10 343 1 250 277 265 14 106 117 146 257 265 307 285 304 300 302 324 220 155 230 227 286 187 299 175
92 87 77 66 75 67 45 23 28 63 78 68 60 59 357 339 346 341 337 317 316 267 264 318 61 238 190 201 272 283 271 267 224 254 274 339 205 221 187 201 239 217 217
102 94 85 80 75 67 65 68 75 66 59 49 23 324 336 352 21 26 18 20 27 8 5 8 354 306 296 263 264 274 279 290 292 238 259 246 279 185 160 194 200 242 188